Regional Weather Roundup
Issued by NWS Cleveland, OH

Home | Current Version | Previous Version | Graphics & Text | Print | Product List | Glossary On
Versions: 1 2 3 4 5 6 7 8 9 10 11 12 13 14 15 16 17 18 19 20 21 22 23 24 25 26 27 28 29 30 31 32 33 34 35 36 37 38 39 40 41 42 43 44 45 46 47 48 49 50
000
ASUS41 KCLE 301302
RWRCLE
OHIO REGIONAL WEATHER ROUNDUP
NATIONAL WEATHER SERVICE CLEVELAND, OH
900 AM EDT WED JUL 30 2014

NOTE: "FAIR" INDICATES FEW OR NO CLOUDS BELOW 12,000 FEET WITH NO
SIGNIFICANT WEATHER AND/OR OBSTRUCTIONS TO VISIBILITY.

OHZ001>008-015>018-024>027-034-035-043-044-301400-
   NORTHWEST OHIO

CITY           SKY/WX    TMP DP  RH WIND       PRES   REMARKS
DEFIANCE       MOSUNNY   63  59  87 CALM      30.03R
FINDLAY        CLOUDY    61  58  90 S5        30.02S
TOLEDO EXPRESS PTSUNNY   62  57  83 W6        30.02R
TOLEDO EXEC    CLOUDY    62  56  80 W6        30.03R
LIMA           PTSUNNY   62  59  90 SW7       30.04R FOG
$$

OHZ009>014-019>023-028>033-038-089-301400-
   NORTHEAST OHIO

CITY           SKY/WX    TMP DP  RH WIND       PRES   REMARKS
CLE-HOPKINS    PTSUNNY   63  57  81 SW6       30.03R
CLE-LAKEFRONT  MOSUNNY   64  58  80 SW8       30.01R
CUY CO. ARPT   PTSUNNY   63  59  88 SW7       30.02R
LORAIN-ELYRIA  CLOUDY    64  58  80 W8        30.03R
ASHTABULA      CLOUDY    58  55  90 CALM      30.03R THUNDER
AKRON-CANTON   PTSUNNY   63  55  75 SW6       30.04R
WOOSTER        MOSUNNY   62  57  83 W7        30.04S
MANSFIELD      CLOUDY    60  58  92 SW6       30.05R
YOUNGSTOWN     CLOUDY    62  54  74 SW8       30.04R
$$

OHZ042-051>053-060>062-070>072-077>081-301400-
  SOUTHWEST OHIO

CITY           SKY/WX    TMP DP  RH WIND       PRES   REMARKS
CINC-COVINGTON MOSUNNY   65  60  84 SW6       30.08R
CINC-LUNKEN    PTSUNNY   64  61  90 S3        30.08S
HAMILTON       MOSUNNY   65  61  87 CALM      30.08R
DAYTON         MOSUNNY   61  58  90 SW8       30.07R
WRIGHT-PAT AFB MOSUNNY   62  60  92 SW6       30.07R
DAYTON GENERAL PTSUNNY   64  58  80 SW8       30.07R
WILMINGTON     SUNNY     64  58  80 SW9       30.07S
$$

OHZ036-037-039>041-045>050-054>059-063>069-073>076-082>088-301400-
  CENTRAL AND SOUTHEAST OHIO

CITY           SKY/WX    TMP DP  RH WIND       PRES   REMARKS
COLUMBUS       MOSUNNY   63  55  75 S3        30.05S
OSU AIRPORT    SUNNY     63  58  83 SW3       30.05S
BOLTON FIELD   SUNNY     61  59  94 SW7       30.06S
RICKENBACK AFB SUNNY     62  54  74 SW7       30.06S
NEWARK         SUNNY     62  56  80 W6        30.06R
MARION         CLOUDY    59  57  93 S5        30.04R FOG
LANCASTER      SUNNY     63  57  81 SW8       30.07R
ZANESVILLE     SUNNY     62  54  74 VRB5      30.06R
NEW PHILLY     SUNNY     61  56  83 W3        30.06R
$$


USA.gov is the U.S. government's official web portal to all federal, state and local government web resources and services.